Location: D�derode
(51.8092°N, 10.1065°E)
Time: 06:07:28
(UTC+00:00)

Cosmos 1500 - Pass Details

Date: 01 December 2020
Orbit: 498 x 519 km, 82.5° (Epoch: 23 January)

Event Time Altitude Azimuth Distance (km) Brightness Sun altitude
Rises 16:59:33 0° 353° (N) 2,638 6.7 -15.7°
Reaches altitude 10° 17:01:44 10° 359° (N) 1,750 5.7 -16.0°
Maximum altitude 17:05:28 48° 75° (ENE) 687 3.3 -16.6°
Drops below altitude 10° 17:09:11 10° 151° (SSE) 1,745 5.7 -17.1°
Sets 17:11:22 0° 157° (SSE) 2,630 6.7 -17.5°
